User: anonymous   Login
Location: Bushey
(51.6333°N, 0.3667°W)
Time: 23:18:31
(UTC+00:00)
Language:

Cosmos 1666 - Orbit

View from above orbital plane
View from above orbital plane
View from above satellite
View from above satellite

Ground track
Ground track

The orbit data is extracted from the following two-line orbital elements,

1 15889U 85058A   21125.19878434  .00000909  00000-0  41196-4 0  9995
2 15889  82.4904  26.9671 0016999 162.0171 198.1668 15.19445416957069
Epoch (UTC): 05 May 2021 04:46:14
Eccentricity: 0.0016999
inclination: 82.4904°
perigee height: 496 km
apogee height: 519 km
right ascension of ascending node: 26.9671°
argument of perigee: 162.0171°
revolutions per day: 15.19445416
mean anomaly at epoch: 198.1668°
orbit number at epoch: 95706

The dashed part of the orbit path shows where the satellite is in the earth's shadow,  

DLR